Weather History for KOGB - August, 2013

Change the Weather History Date:

Saturday, August 17, 2013

  Actual Average Record
Temperature  
Mean Temperature 69 °F 80 °F  
Max Temperature 72 °F 90 °F 104 °F (1954)
Min Temperature 66 °F 71 °F 59 °F (1983)
Degree Days  
Heating Degree Days 0 0  
Month to date heating degree days 0 0  
Since 1 June heating degree days 0 1  
Since 1 July heating degree days 0 0  
Cooling Degree Days 4 15  
Month to date cooling degree days 239 273  
Year to date cooling degree days 1401 1495  
Since 1 June cooling degree days 1139 1192  
Growing Degree Days 19 (Base 50)    
Moisture  
Dew Point 65 °F    
Average Humidity 90    
Maximum Humidity 93    
Minimum Humidity 84    
Precipitation  
Precipitation 0.01 in 0.17 in 4.31 in (1971)
Month to date precipitation 3.39 3.04  
Year to date precipitation 41.13 31.07  
Sea Level Pressure  
Sea Level Pressure 30.11 in    
Wind  
Wind Speed 4 mph (NNE)    
Max Wind Speed 9 mph    
Max Gust Speed 12 mph    
Visibility 6 miles    
Events Rain    
T = Trace of Precipitation, MM = Missing Value Source: NWS Daily Summary

Daily Weather History Graph

Daily Weather History Graph

Search for Another Location

Airport or City:

Trip Planner

Search our weather history database for the weather conditions in past years. The results will help you decide how hot, cold, wet, or windy it might be!

Date:

Astronomy

Aug. 17, 2013 Rise Set
Actual Time 6:47 AM EDT 8:06 PM EDT
Civil Twilight 6:21 AM EDT 8:32 PM EDT
Nautical Twilight 5:50 AM EDT 9:04 PM EDT
Astronomical Twilight 5:17 AM EDT 9:36 PM EDT
Moon 5:16 PM EDT (8/17) 2:54 AM EDT (8/17)
Length of Visible Light 14h 11m
Length of Day
13h 19m
Waxing Gibbous, 84% of the Moon is Illuminated
Aug 17
Waxing Gibbous
Aug 20
Full
Aug 28
Last Quarter
Sep 5
New
Sep 12
First Quarter

Hourly Weather History & Observations

Time (EDT) Temp. Dew Point Humidity Pressure Visibility Wind Dir Wind Speed Gust Speed Precip Events Conditions
12:53 AM 66.9 °F 64.0 °F 90% 30.09 in 6.0 mi NE 9.2 mph - 0.00 in   Overcast
1:53 AM 66.9 °F 64.9 °F 93% 30.09 in 3.0 mi NE 5.8 mph - N/A   Overcast
2:44 AM 66.2 °F 64.4 °F 94% 30.07 in 6.0 mi NNE 5.8 mph - N/A   Overcast
2:53 AM 66.9 °F 64.0 °F 90% 30.07 in 7.0 mi NNE 6.9 mph - N/A   Overcast
3:53 AM 66.9 °F 64.9 °F 93% 30.06 in 7.0 mi NE 5.8 mph - 0.00 in Rain Light Rain
4:25 AM 66.2 °F 64.4 °F 94% 30.07 in 2.5 mi NNE 6.9 mph - 0.00 in   Overcast
4:53 AM 66.0 °F 64.0 °F 93% 30.06 in 2.5 mi NNE 9.2 mph - 0.00 in   Overcast
5:23 AM 66.2 °F 64.4 °F 94% 30.07 in 3.0 mi NNE 5.8 mph - N/A   Overcast
5:53 AM 66.0 °F 64.0 °F 93% 30.07 in 3.0 mi NNE 6.9 mph - N/A   Overcast
6:31 AM 66.2 °F 64.4 °F 94% 30.08 in 2.5 mi NNE 9.2 mph - N/A   Overcast
6:53 AM 66.0 °F 64.0 °F 93% 30.08 in 2.5 mi NNE 8.1 mph - N/A   Overcast
7:24 AM 66.2 °F 64.4 °F 94% 30.09 in 1.8 mi NNE 4.6 mph - N/A   Overcast
7:40 AM 66.2 °F 64.4 °F 94% 30.09 in 2.0 mi NNE 8.1 mph - N/A   Overcast
7:53 AM 66.0 °F 64.0 °F 93% 30.09 in 2.0 mi NNE 6.9 mph - N/A   Overcast
8:46 AM 66.2 °F 64.4 °F 94% 30.12 in 2.5 mi NE 6.9 mph - N/A   Overcast
9:24 AM 66.2 °F 64.4 °F 94% 30.12 in 5.0 mi NNE 5.8 mph - N/A   Overcast
9:53 AM 68.0 °F 64.9 °F 90% 30.13 in 7.0 mi NNE 4.6 mph - N/A   Overcast
10:53 AM 68.0 °F 64.9 °F 90% 30.14 in 10.0 mi NE 5.8 mph - 0.00 in Rain Light Rain
11:53 AM 69.1 °F 64.9 °F 87% 30.15 in 10.0 mi Calm Calm - 0.00 in   Overcast
12:53 PM 69.1 °F 64.9 °F 87% 30.14 in 10.0 mi NE 4.6 mph - N/A   Overcast
1:30 PM 69.8 °F 64.4 °F 83% 30.15 in 10.0 mi Calm Calm - 0.00 in   Overcast
1:53 PM 70.0 °F 64.9 °F 84% 30.13 in 10.0 mi NE 3.5 mph - 0.00 in   Overcast
2:53 PM 71.1 °F 66.0 °F 84% 30.11 in 10.0 mi Calm Calm - 0.00 in   Overcast
3:53 PM 71.1 °F 66.0 °F 84% 30.11 in 7.0 mi NNE 4.6 mph - N/A   Overcast
4:53 PM 71.1 °F 66.9 °F 87% 30.13 in 4.0 mi Calm Calm - 0.00 in Rain Light Rain
5:07 PM 71.6 °F 66.2 °F 83% 30.12 in 5.0 mi Calm Calm - 0.00 in Rain Light Rain
5:46 PM 71.6 °F 66.2 °F 83% 30.12 in 6.0 mi North 4.6 mph - 0.00 in   Haze
5:53 PM 72.0 °F 66.9 °F 84% 30.11 in 6.0 mi North 5.8 mph - 0.00 in   Haze
6:30 PM 71.6 °F 66.2 °F 83% 30.11 in 5.0 mi North 5.8 mph - N/A   Overcast
6:53 PM 71.1 °F 66.9 °F 87% 30.11 in 4.0 mi NE 3.5 mph - N/A   Overcast
7:53 PM 70.0 °F 66.9 °F 90% 30.12 in 6.0 mi NE 4.6 mph - 0.00 in Rain Light Rain
8:53 PM 70.0 °F 66.9 °F 90% 30.14 in 7.0 mi Calm Calm - 0.00 in   Overcast
9:27 PM 69.8 °F 66.2 °F 88% 30.16 in 7.0 mi Calm Calm - N/A   Scattered Clouds
9:53 PM 70.0 °F 66.9 °F 90% 30.17 in 6.0 mi Calm Calm - N/A   Mostly Cloudy
10:53 PM 70.0 °F 66.9 °F 90% 30.17 in 5.0 mi Calm Calm - N/A   Overcast
11:53 PM 70.0 °F 66.9 °F 90% 30.17 in 5.0 mi Calm Calm - 0.00 in Rain Light Rain